Terug naar catalogus

INSAT 3B

ActiefCommunicatieGEO
NORAD 26108·PAYLOAD·🇮🇳 India

Gelanceerd Mar 21, 2000 vanaf Guiana Space Centre

Loading…

TLE

VersSource: Space-Track

Epoch: Sep 14, 2026, 15:32 UTC

1 26108U 00016B   26257.64755468 -.00000084  00000-0  00000-0 0  9994
2 26108  11.0386  44.6595 0007830 210.5170 337.3893  0.99663857 52326

Volg INSAT 3B in realtime met AllMySat

Download on the App Store